[[{"header":{"parameterUnit":"m.s-1","parameterCategory":1,"la1":30.2991,"la2":30.254,"lo1":-89.0895,"lo2":-89.0444,"dy":0.0017,"dx":0.0017,"nx":28,"ny":28,"refTime":"2025-07-11T03:00:00:Z","depth":0,"parameterNumber":2,"parameterNumberName":"U-component_of_WINDS"},"data":[0,0,0,0,0,0,0,0,0,0,0,0,0,0,0,0,0,0,0,0,0,0,0,0,0,0,0,0,0,0,0,0,0,0,0,0,0,0,0,0,0,0,0,0,0,0,0,0,0,0,0,0,0,0,0,0,0,0,2.7336,2.7337,0,2.7466,2.7467,2.7469,2.7409,2.7405,2.7402,2.7399,2.7534,2.754,2.7547,0,0,0,0,0,0,0,0,0,0,0,0,0,2.7036,2.7042,2.7336,2.7337,2.7339,2.7466,2.7467,2.7469,2.7409,2.7405,2.7401,2.7397,2.7532,2.7539,2.7547,0,0,0,0,0,0,0,0,0,0,0,0,0,2.7166,2.7044,2.7335,2.7324,2.7324,2.7465,2.7468,2.747,2.741,2.7405,2.74,2.7395,2.7529,2.7539,2.7549,2.7709,0,0,2.7579,2.7583,0,0,0,0,0,0,0,0,2.7159,2.7177,2.7324,2.7325,2.7326,2.7416,2.7411,2.755,2.7411,2.7378,2.7399,2.7393,2.7499,2.7511,2.7546,2.7715,2.7721,2.758,2.7586,2.759,2.7593,0,0,0,0,0,0,0,2.715,2.7171,2.7387,2.7326,2.7327,2.7313,2.7326,2.7437,2.7464,2.738,2.7376,2.7392,2.7498,2.7537,2.7549,2.7723,2.758,2.7588,2.7595,2.7599,2.8028,2.8033,0,0,0,0,0,0,2.7141,2.7164,2.7383,2.7391,2.7228,2.7322,2.7337,2.7392,2.7463,2.7469,2.7396,2.7389,2.7522,2.7537,2.7553,2.7744,2.759,2.76,2.7605,2.8022,2.8029,2.8035,0,0,0,0,0,0,2.7135,2.7161,2.7378,2.7277,2.7303,2.7333,2.7395,2.7397,2.7435,2.7475,2.748,2.7431,2.7519,2.7539,2.767,2.7748,2.7604,2.7613,2.8016,2.8024,2.8032,2.8129,0,0,0,0,0,0,2.7126,2.7159,2.722,2.7278,2.7309,2.7493,2.74,2.7403,2.7453,2.7444,2.7508,2.7514,2.7516,2.7655,2.768,2.7759,2.7621,2.8009,2.802,2.8029,2.8119,2.8139,2.8157,0,0,0,0,0,2.7116,2.7243,2.7224,2.725,2.7386,2.7497,2.7515,2.7514,2.7459,2.7521,2.7546,2.7512,2.7736,2.7669,2.7696,2.778,2.8004,2.8017,2.8029,2.811,2.8135,2.8156,0,0,0,0,0,0,2.7194,2.725,2.723,2.7379,2.7434,2.7487,2.7565,2.7541,2.7612,2.7602,2.7598,2.7613,2.7748,2.7777,2.7702,2.7938,2.7862,2.788,2.7914,2.7938,2.7957,2.7947,2.7629,0,0,0,0,0,2.7229,2.7314,2.7359,2.7487,2.7515,2.7535,2.7584,2.7579,2.7635,2.7658,2.7693,2.7749,2.7832,2.7887,2.7965,2.8122,2.8135,2.8193,2.8212,2.8228,2.8243,2.8328,2.8354,2.8075,2.8075,2.8075,0,0,2.7302,2.7343,2.7397,2.7503,2.7545,2.7634,2.7555,2.7653,2.7718,2.7673,2.7798,2.7826,2.7888,2.8033,2.8098,2.8061,2.8323,2.8243,2.8255,2.8263,2.8343,2.8369,2.8393,2.8083,2.8082,2.808,0,0,2.7479,2.7519,2.7629,2.7672,2.7736,2.7748,2.7775,2.7831,2.7847,2.7973,2.794,2.8018,2.8161,2.8207,2.8249,2.8442,2.8414,2.8468,2.8567,2.865,2.8671,2.8691,2.8759,2.8784,2.8484,2.8484,2.8484,0,2.7561,2.7693,2.7689,2.7789,2.7836,2.7798,2.791,2.7952,2.8038,2.8072,2.8029,2.8206,2.8246,2.84,2.8447,2.8483,2.8512,2.8461,2.8668,2.8688,2.8706,2.8771,2.8797,2.849,2.8489,2.8489,2.8488,0,2.7791,2.7883,2.7965,2.8048,2.8104,2.821,2.8221,2.8279,2.8269,2.8286,2.8413,2.8459,2.8546,2.8582,2.8573,2.8735,2.8709,2.8668,2.8591,2.8739,2.88,2.8825,2.8499,2.8497,2.8495,2.8493,0,0,2.8023,2.8101,2.8131,2.8168,2.8234,2.8306,2.8409,2.8492,2.8542,2.8602,2.8689,2.881,2.8771,2.8819,2.8815,2.8887,2.9036,2.8836,2.8837,2.8871,2.9216,2.9246,2.9275,2.9017,2.9022,2.9026,2.921,0,2.8204,2.8384,2.8383,2.855,2.8634,2.8599,2.8688,2.8739,2.8757,2.8832,2.8852,2.8938,2.888,2.8909,2.8979,2.9003,2.9105,2.899,2.9097,2.9101,2.9082,2.9307,2.9341,2.9512,2.9234,2.9238,2.9241,0,2.8441,2.8508,2.8683,2.8736,2.8771,2.8852,2.8928,2.9,2.9056,2.9064,2.9117,2.9101,2.9206,2.9126,2.9269,2.9191,2.9235,2.9253,2.926,2.927,2.918,2.9323,2.9567,2.9593,2.9279,2.9276,2.9273,0,2.8592,2.8726,2.8847,2.888,2.8945,2.9002,2.9032,2.9084,2.9134,2.92,2.9232,2.9311,2.9354,2.9415,2.942,2.9362,2.9565,2.9486,2.9575,2.9575,2.9619,2.9616,2.9874,2.9648,2.9648,2.9647,2.9647,0,2.8795,2.8903,2.8915,2.899,2.911,2.9107,2.9226,2.9251,2.9297,2.9376,2.935,2.9425,2.9428,2.9504,2.9509,2.9627,2.9647,2.9656,2.9656,2.9659,2.9657,2.9687,2.9675,2.9654,2.9653,2.9651,2.965,0,2.8983,2.8996,2.9126,2.9177,2.9192,2.9278,2.9321,2.9392,2.9407,2.9507,2.9531,2.9555,2.9643,2.9655,2.9759,2.9762,2.9904,2.9891,2.9885,2.9883,2.997,2.9962,3.0256,3.0294,3.0044,3.0046,3.0048,0,2.9112,2.9194,2.9253,2.9303,2.9336,2.9418,2.9469,2.9469,2.9522,2.9592,2.9655,2.974,2.9809,2.9952,2.9979,3.0058,3.0047,3.0144,3.0059,3.0058,3.0048,3.0042,3.005,3.0161,3.0164,3.0166,3.0168,0,2.9339,2.9341,2.9414,2.949,2.9551,2.9611,2.9667,2.971,2.9717,2.9778,2.9868,2.9921,3.0026,3.0111,3.0189,3.0219,3.0195,3.0194,3.0219,3.0222,3.0214,3.0219,2.9929,3.0188,3.0186,3.0184,3.0183,3.0182,2.9501,2.9572,2.9624,2.9706,2.9748,2.9801,2.987,2.9893,2.9968,3.0053,3.0048,3.0147,3.02,3.0301,3.0338,3.0414,3.0382,3.0418,3.0427,3.0436,3.0444,3.0202,3.0429,3.0428,3.0428,3.0427,3.0427,0,2.9726,2.9757,2.9833,2.9912,2.9976,2.9947,3.0007,3.0063,3.015,3.0201,3.0269,3.0371,3.0453,3.0486,3.0566,3.0622,3.0612,3.0643,3.0638,3.0646,3.0469,3.0439,3.0649,3.0649,3.0649,3.0649,3.0649,3.0648,2.9851,2.9968,2.9976,3.0114,3.0145,3.0241,3.0277,3.0326,3.0366,3.0482,3.0549,3.057,3.0614,3.0697,3.0771,3.0778,3.0809,3.0844,3.0846,3.0681,3.0658,3.0637,3.0609,3.0851,3.0851,3.1017,3.1018,3.1019]},{"header":{"parameterUnit":"m.s-1","parameterCategory":1,"la1":30.2991,"la2":30.254,"lo1":-89.0895,"lo2":-89.0444,"dy":0.0017,"dx":0.0017,"nx":28,"ny":28,"refTime":"2025-07-11T03:00:00:Z","depth":0,"parameterNumber":3,"parameterNumberName":"V-component_of_WINDS"},"data":[0,0,0,0,0,0,0,0,0,0,0,0,0,0,0,0,0,0,0,0,0,0,0,0,0,0,0,0,0,0,0,0,0,0,0,0,0,0,0,0,0,0,0,0,0,0,0,0,0,0,0,0,0,0,0,0,0,0,-1.5684,-1.5685,0,-1.5769,-1.577,-1.5771,-1.5817,-1.5817,-1.5817,-1.5817,-1.5902,-1.5904,-1.5906,0,0,0,0,0,0,0,0,0,0,0,0,0,-1.556,-1.5562,-1.5684,-1.5685,-1.5686,-1.5769,-1.577,-1.5771,-1.5817,-1.5817,-1.5817,-1.5817,-1.5901,-1.5904,-1.5906,0,0,0,0,0,0,0,0,0,0,0,0,0,-1.5626,-1.5562,-1.5684,-1.5719,-1.5723,-1.5768,-1.577,-1.5771,-1.5817,-1.5817,-1.5817,-1.5817,-1.59,-1.5903,-1.5906,-1.5923,0,0,-1.5916,-1.5918,0,0,0,0,0,0,0,0,-1.5622,-1.563,-1.5713,-1.5717,-1.5721,-1.5783,-1.5757,-1.5822,-1.5817,-1.5781,-1.5817,-1.5817,-1.5862,-1.5868,-1.5884,-1.5927,-1.593,-1.5917,-1.5919,-1.592,-1.5921,0,0,0,0,0,0,0,-1.5617,-1.5627,-1.5717,-1.5714,-1.5719,-1.573,-1.5739,-1.577,-1.5819,-1.5784,-1.5788,-1.5797,-1.5864,-1.588,-1.5886,-1.5932,-1.5917,-1.5919,-1.5921,-1.5923,-1.5993,-1.5993,0,0,0,0,0,0,-1.5607,-1.5623,-1.5715,-1.572,-1.5671,-1.5732,-1.5743,-1.5763,-1.5819,-1.5828,-1.5797,-1.5799,-1.5875,-1.5882,-1.5889,-1.5912,-1.592,-1.5923,-1.5925,-1.5993,-1.5993,-1.5993,0,0,0,0,0,0,-1.5605,-1.5615,-1.5711,-1.5673,-1.5686,-1.5734,-1.5756,-1.5764,-1.5781,-1.5829,-1.5838,-1.5805,-1.5875,-1.5885,-1.5914,-1.5916,-1.5924,-1.5927,-1.5993,-1.5993,-1.5993,-1.5959,0,0,0,0,0,0,-1.5601,-1.5614,-1.5621,-1.5672,-1.5687,-1.5736,-1.5756,-1.5766,-1.5786,-1.579,-1.5838,-1.5847,-1.5876,-1.5909,-1.5918,-1.5921,-1.593,-1.5993,-1.5993,-1.5993,-1.596,-1.5958,-1.5955,0,0,0,0,0,-1.5596,-1.5607,-1.5621,-1.5632,-1.5697,-1.5736,-1.5744,-1.5779,-1.5786,-1.5794,-1.5825,-1.5845,-1.5915,-1.5912,-1.5922,-1.5926,-1.5994,-1.5993,-1.5993,-1.5961,-1.5958,-1.5956,0,0,0,0,0,0,-1.5554,-1.5615,-1.5631,-1.5659,-1.5692,-1.5743,-1.5754,-1.5774,-1.5805,-1.5807,-1.5848,-1.5858,-1.5884,-1.5908,-1.5904,-1.5945,-1.5956,-1.5958,-1.5928,-1.5926,-1.5924,-1.5917,-1.5932,0,0,0,0,0,-1.5548,-1.5574,-1.5626,-1.5646,-1.5662,-1.5705,-1.5722,-1.5746,-1.5782,-1.5796,-1.5829,-1.5862,-1.5892,-1.591,-1.594,-1.5964,-1.5975,-1.5971,-1.5969,-1.5967,-1.5968,-1.5983,-1.5982,-1.5993,-1.5993,-1.5993,0,0,-1.5535,-1.5572,-1.5586,-1.5638,-1.5667,-1.5693,-1.5716,-1.5743,-1.5762,-1.58,-1.583,-1.5856,-1.5896,-1.5923,-1.5936,-1.5943,-1.5967,-1.5967,-1.5965,-1.5967,-1.5982,-1.5981,-1.598,-1.5993,-1.5993,-1.5993,0,0,-1.5526,-1.5557,-1.5577,-1.5605,-1.5648,-1.5677,-1.5682,-1.5731,-1.5749,-1.5781,-1.581,-1.5834,-1.5883,-1.5911,-1.5931,-1.5933,-1.5953,-1.5942,-1.5929,-1.5943,-1.5943,-1.5942,-1.5943,-1.5943,-1.5942,-1.5942,-1.5942,0,-1.5505,-1.5547,-1.5584,-1.561,-1.5632,-1.5668,-1.5688,-1.5714,-1.5764,-1.5778,-1.5785,-1.5849,-1.5878,-1.5912,-1.5913,-1.5928,-1.5935,-1.5936,-1.594,-1.594,-1.594,-1.5941,-1.5941,-1.5941,-1.5941,-1.5941,-1.5941,0,-1.5519,-1.5547,-1.5558,-1.5606,-1.563,-1.5652,-1.5693,-1.5712,-1.5734,-1.5762,-1.5793,-1.583,-1.5868,-1.5878,-1.5899,-1.5915,-1.5918,-1.5932,-1.5944,-1.5936,-1.5938,-1.5939,-1.5938,-1.5939,-1.5939,-1.594,0,0,-1.5484,-1.5554,-1.5558,-1.558,-1.5631,-1.5653,-1.5678,-1.5716,-1.5731,-1.5765,-1.5786,-1.5828,-1.5842,-1.5865,-1.5889,-1.5902,-1.5901,-1.5914,-1.5916,-1.591,-1.5922,-1.5911,-1.5911,-1.5915,-1.5915,-1.5916,-1.5918,0,-1.5482,-1.5528,-1.5563,-1.5596,-1.5622,-1.5658,-1.5679,-1.5712,-1.5739,-1.5765,-1.5794,-1.5823,-1.5839,-1.5853,-1.5867,-1.5898,-1.5904,-1.5899,-1.5935,-1.5936,-1.5924,-1.5912,-1.59,-1.5901,-1.5919,-1.592,-1.592,0,-1.5486,-1.5519,-1.5555,-1.5603,-1.5616,-1.5634,-1.5673,-1.5697,-1.5736,-1.5754,-1.5781,-1.5806,-1.5833,-1.5844,-1.5881,-1.5877,-1.5894,-1.5911,-1.5912,-1.5917,-1.5927,-1.5916,-1.5902,-1.5902,-1.5921,-1.5921,-1.5921,0,-1.5457,-1.5511,-1.5539,-1.5558,-1.5615,-1.5627,-1.5652,-1.5691,-1.5712,-1.5745,-1.5759,-1.5794,-1.5813,-1.584,-1.5875,-1.5879,-1.5909,-1.5922,-1.5925,-1.5924,-1.5929,-1.5928,-1.5918,-1.5941,-1.5941,-1.594,-1.594,0,-1.5451,-1.5471,-1.5527,-1.5545,-1.5568,-1.5609,-1.5631,-1.5658,-1.5693,-1.5716,-1.5748,-1.5769,-1.5814,-1.584,-1.5867,-1.5894,-1.5903,-1.5918,-1.5925,-1.5916,-1.5913,-1.5927,-1.5928,-1.5941,-1.5941,-1.5941,-1.5941,0,-1.5422,-1.5461,-1.5494,-1.5546,-1.556,-1.5575,-1.562,-1.5638,-1.5667,-1.5696,-1.5705,-1.575,-1.5783,-1.5821,-1.5865,-1.5884,-1.5909,-1.5919,-1.5896,-1.59,-1.5901,-1.59,-1.5898,-1.59,-1.5921,-1.5921,-1.5921,0,-1.5416,-1.5432,-1.5487,-1.5505,-1.5529,-1.5558,-1.558,-1.562,-1.5641,-1.5687,-1.5699,-1.5735,-1.5765,-1.5816,-1.5852,-1.5887,-1.5898,-1.5895,-1.5903,-1.5893,-1.5898,-1.5896,-1.5898,-1.5892,-1.5892,-1.5892,-1.5891,0,-1.54,-1.5418,-1.5449,-1.5486,-1.5512,-1.5543,-1.5576,-1.5589,-1.5636,-1.5658,-1.5692,-1.5716,-1.5762,-1.5797,-1.5836,-1.5861,-1.5884,-1.5889,-1.5891,-1.5881,-1.5867,-1.5875,-1.5889,-1.5888,-1.5889,-1.5889,-1.5889,-1.5889,-1.5382,-1.5398,-1.544,-1.5473,-1.5502,-1.5532,-1.5552,-1.5584,-1.5614,-1.5655,-1.5677,-1.5711,-1.575,-1.5805,-1.5829,-1.5856,-1.5864,-1.5867,-1.5868,-1.5869,-1.5866,-1.5863,-1.5864,-1.5864,-1.5864,-1.5864,-1.5864,0,-1.5367,-1.5396,-1.5426,-1.5471,-1.5498,-1.5518,-1.5556,-1.5576,-1.5606,-1.564,-1.567,-1.571,-1.5744,-1.5784,-1.582,-1.5834,-1.5846,-1.5843,-1.5842,-1.5847,-1.5857,-1.5851,-1.5833,-1.5833,-1.5833,-1.5833,-1.5833,-1.5833,-1.5363,-1.5392,-1.5416,-1.546,-1.5488,-1.5523,-1.5542,-1.557,-1.5598,-1.5641,-1.567,-1.5697,-1.5733,-1.5773,-1.5805,-1.5816,-1.5828,-1.5822,-1.5836,-1.5844,-1.5846,-1.5849,-1.5844,-1.5824,-1.5824,-1.5824,-1.5824,-1.5824]}]]